This demonstration page uses our WeatherBlox Daily Observations layout. Learn more.

Left ArrowRight Arrow

Hourly Observations for May 13, 2016

Temp ( °F °C ) Dew Point ( °F °C ) Humidity (%) Winds ( mph kmh ) Pressure ( in mb ) Visibility ( mi km ) Precip ( " mm )
12:52 am 00:52 Clear 52 11.1 44 6.7 75 75 SSW 5 7 30.16 1022 10 16 0.00 0.00
1:52 am 01:52 Clear 50 10 43 6.1 77 77 SSW 3 6 30.16 1021 10 16 0.00 0.00
2:52 am 02:52 Clear 48 8.9 42 5.6 80 80 S 3 6 30.16 1021 10 16 0.00 0.00
3:52 am 03:52 Clear 47 8.3 42 5.6 83 83 S 5 7 30.15 1021 10 16 0.00 0.00
4:52 am 04:52 Clear 48 8.9 42 5.6 80 80 S 5 7 30.15 1021 10 16 0.00 0.00
5:52 am 05:52 Clear 46 7.8 41 5 83 83 S 5 7 30.16 1021 10 16 0.00 0.00
6:52 am 06:52 Sunny 49 9.4 43 6.1 80 80 S 6 9 30.16 1022 10 16 0.00 0.00
7:52 am 07:52 Sunny 58 14.4 47 8.3 67 67 S 5 7 30.17 1022 10 16 0.00 0.00
8:52 am 08:52 Sunny 65 18.3 47 8.3 52 52 SW 8 13 30.17 1022 10 16 0.00 0.00
9:52 am 09:52 Sunny 70 21.1 45 7.2 41 41 SW 10 17 30.16 1021 10 16 0.00 0.00
10:52 am 10:52 Sunny 73 22.8 45 7.2 37 37 WSW 12 19 30.15 1021 10 16 0.00 0.00
11:52 am 11:52 Sunny 75 23.9 47 8.3 37 37 SW 17 28 30.14 1021 10 16 0.00 0.00
12:52 pm 12:52 Sunny 76 24.4 46 7.8 35 35 SW 13 20 30.11 1020 10 16 0.00 0.00
1:52 pm 13:52 Sunny 77 25 47 8.3 35 35 SW 16 26 30.07 1018 10 16 0.00 0.00
2:52 pm 14:52 Sunny 79 26.1 49 9.4 35 35 SSW 18 30 30.04 1017 10 16 0.00 0.00
3:52 pm 15:52 Sunny 79 26.1 50 10 36 36 SW 16 26 30.01 1016 10 16 0.00 0.00
4:52 pm 16:52 Sunny 79 26.1 49 9.4 35 35 SW 17 28 29.98 1015 10 16 0.00 0.00
5:52 pm 17:52 Sunny 77 25 49 9.4 37 37 SW 20 31 29.99 1016 10 16 0.00 0.00
6:52 pm 18:52 Partly Cloudy with Light Rain 73 22.8 52 11.1 48 48 SW 10 17 29.99 1016 10 16 0.00 0.03
7:52 pm 19:52 Partly Cloudy 70 21.1 53 11.7 55 55 WSW 10 17 29.98 1015 10 16 0.00 0.03
8:52 pm 20:52 Clear 63 17.2 54 12.2 73 73 SW 6 9 29.99 1016 10 16 0.00 0.00
9:52 pm 21:52 Partly Cloudy 64 17.8 53 11.7 68 68 SW 6 9 29.99 1016 10 16 0.00 0.00
10:52 pm 22:52 Clear 64 17.8 53 11.7 68 68 WNW 9 15 30.01 1016 10 16 0.00 0.00
11:23 pm 23:23 Mostly Cloudy 62 16.7 55 12.8 78 78 NNW 21 33 30.06 1018 10 16 0.00 0.00
11:52 pm 23:52 Cloudy 59 15 52 11.1 78 78 N 23 37 30.06 1018 10 16 0.00 0.00

Powered by AerisWeather